Weather History for KCEF - February, 2013

Change the Weather History Date:

Wednesday, February 27, 2013

  Actual Average Record
Temperature  
Mean Temperature 38 °F -  
Max Temperature 42 °F 38 °F 59 °F (2009)
Min Temperature 33 °F 22 °F -2 °F (2003)
Degree Days  
Heating Degree Days 28    
Moisture  
Dew Point 37 °F    
Average Humidity 95    
Maximum Humidity 100    
Minimum Humidity 83    
Precipitation  
Precipitation 0.61 in - - ()
Sea Level Pressure  
Sea Level Pressure 29.74 in    
Wind  
Wind Speed 9 mph (ENE)    
Max Wind Speed 15 mph    
Max Gust Speed 23 mph    
Visibility 8 miles    
Events Rain , Snow    
Averages and records for this station are not official NWS values.
T = Trace of Precipitation, MM = Missing Value Source: NWS Daily Summary

Daily Weather History Graph

Daily Weather History Graph

Search for Another Location

Airport or City:

Trip Planner

Search our weather history database for the weather conditions in past years. The results will help you decide how hot, cold, wet, or windy it might be!

Date:

Astronomy

Feb. 27, 2013 Rise Set
Actual Time 6:28 AM EST 5:38 PM EST
Civil Twilight 6:00 AM EST 6:06 PM EST
Nautical Twilight 5:27 AM EST 6:38 PM EST
Astronomical Twilight 4:55 AM EST 7:11 PM EST
Moon 7:59 PM EST (2/27) 6:58 AM EST (2/27)
Length of Visible Light 12h 06m
Length of Day
11h 09m
Waning Gibbous, 96% of the Moon is Illuminated
Feb 27
Waning Gibbous
Mar 4
Last Quarter
Mar 11
New
Mar 19
First Quarter
Mar 27
Full

Hourly Weather History & Observations

Time (EST) Temp. Windchill Dew Point Humidity Pressure Visibility Wind Dir Wind Speed Gust Speed Precip Events Conditions
12:55 AM 35.2 °F 27.6 °F 30.6 °F 83% 30.06 in 10.0 mi ENE 10.4 mph - 0.00 in Rain Light Rain
1:14 AM 35.6 °F 28.0 °F 32.0 °F 87% 30.05 in 10.0 mi ENE 10.4 mph - N/A Rain Light Rain
1:55 AM 34.5 °F 28.6 °F 32.4 °F 92% 30.04 in 9.0 mi ENE 6.9 mph - 0.04 in Rain Light Rain
2:10 AM 33.8 °F 28.6 °F 33.8 °F 100% 30.04 in 10.0 mi ENE 5.8 mph - N/A Rain Light Rain
2:12 AM 33.8 °F 29.6 °F 33.8 °F 100% 30.05 in 10.0 mi ENE 4.6 mph - N/A Rain Light Rain
2:55 AM 34.3 °F 28.4 °F 33.4 °F 97% 30.03 in 4.0 mi NE 6.9 mph - 0.11 in Rain Light Rain
3:32 AM 33.8 °F 24.8 °F 33.8 °F 100% 29.99 in 10.0 mi NE 12.7 mph - N/A Snow Light Snow
3:38 AM 33.8 °F 24.3 °F 32.0 °F 93% 29.98 in 10.0 mi NE 13.8 mph - N/A Rain Light Rain
3:55 AM 33.6 °F 24.6 °F 33.1 °F 98% 29.96 in 10.0 mi ENE 12.7 mph - 0.08 in Rain Light Rain
4:08 AM 33.8 °F 25.8 °F 33.8 °F 100% 29.96 in 10.0 mi NE 10.4 mph - N/A Rain Light Rain
4:30 AM 35.6 °F 29.2 °F 33.8 °F 93% 29.95 in 10.0 mi ENE 8.1 mph - N/A   Overcast
4:55 AM 35.2 °F 27.6 °F 34.3 °F 97% 29.94 in 10.0 mi ENE 10.4 mph 17.3 mph 0.03 in   Overcast
4:57 AM 35.6 °F 27.5 °F 33.8 °F 93% 29.94 in 10.0 mi ENE 11.5 mph 17.3 mph N/A   Overcast
5:11 AM 35.6 °F 27.5 °F 33.8 °F 93% 29.93 in 10.0 mi ENE 11.5 mph 19.6 mph N/A Rain Light Rain
5:17 AM 35.6 °F 27.1 °F 33.8 °F 93% 29.93 in 10.0 mi ENE 12.7 mph 19.6 mph N/A Rain Light Rain
5:40 AM 35.6 °F 27.5 °F 33.8 °F 93% 29.93 in 8.0 mi ENE 11.5 mph - N/A Rain Light Rain
5:54 AM 35.6 °F 29.9 °F 35.6 °F 100% 29.92 in 8.0 mi ENE 6.9 mph - N/A Rain Light Rain
5:55 AM 36.0 °F 30.3 °F 34.9 °F 96% 29.92 in 8.0 mi ENE 6.9 mph - 0.02 in Rain Light Rain
5:56 AM 35.6 °F 28.6 °F 35.6 °F 100% 29.92 in 8.0 mi ENE 9.2 mph - N/A Rain Light Rain
5:59 AM 35.6 °F 28.6 °F 35.6 °F 100% 29.92 in 8.0 mi ENE 9.2 mph - N/A Rain Light Rain
6:28 AM 35.6 °F 28.0 °F 35.6 °F 100% 29.88 in 10.0 mi ENE 10.4 mph 19.6 mph N/A   Overcast
6:40 AM 35.6 °F 27.5 °F 35.6 °F 100% 29.87 in 10.0 mi ENE 11.5 mph 21.9 mph N/A Rain Light Rain
6:45 AM 37.4 °F 28.9 °F 35.6 °F 93% 29.87 in 7.0 mi ENE 13.8 mph 23.0 mph N/A Rain Light Rain
6:55 AM 36.7 °F 29.4 °F 35.8 °F 97% 29.86 in 6.0 mi ENE 10.4 mph 17.3 mph 0.06 in Rain Light Rain
7:02 AM 37.4 °F 29.3 °F 35.6 °F 93% 29.86 in 10.0 mi ENE 12.7 mph 18.4 mph N/A Rain Light Rain
7:05 AM 37.4 °F 30.3 °F 35.6 °F 93% 29.86 in 10.0 mi ENE 10.4 mph 21.9 mph N/A   Overcast
7:39 AM 37.4 °F 30.8 °F 37.4 °F 100% 29.85 in 10.0 mi East 9.2 mph 18.4 mph N/A   Overcast
7:41 AM 37.4 °F 32.1 °F 37.4 °F 100% 29.85 in 10.0 mi East 6.9 mph - N/A   Overcast
7:55 AM 38.5 °F 32.7 °F 37.2 °F 95% 29.85 in 5.0 mi ENE 8.1 mph - 0.01 in Rain Light Rain
8:40 AM 39.2 °F 31.6 °F 37.4 °F 93% 29.83 in 5.0 mi ENE 12.7 mph 17.3 mph N/A Rain Light Rain
8:55 AM 38.7 °F 30.5 °F 37.9 °F 97% 29.81 in 7.0 mi ENE 13.8 mph - 0.07 in Rain Light Rain
8:58 AM 39.2 °F 31.2 °F 37.4 °F 93% 29.81 in 7.0 mi ENE 13.8 mph - N/A Rain Light Rain
9:05 AM 39.2 °F 31.6 °F 37.4 °F 93% 29.81 in 9.0 mi NE 12.7 mph 20.7 mph N/A Rain Light Rain
9:27 AM 39.2 °F 33.0 °F 39.2 °F 100% 29.80 in 10.0 mi NE 9.2 mph - N/A Rain Light Rain
9:33 AM 39.2 °F 33.0 °F 39.2 °F 100% 29.79 in 10.0 mi NE 9.2 mph - N/A Rain Light Rain
9:55 AM 39.6 °F 33.0 °F 39.2 °F 99% 29.77 in 8.0 mi NE 10.4 mph - 0.02 in Rain Light Rain
10:14 AM 41.0 °F 33.1 °F 39.2 °F 93% 29.75 in 7.0 mi NE 15.0 mph 21.9 mph N/A Rain Light Rain
10:48 AM 41.0 °F 35.8 °F 41.0 °F 100% 29.74 in 9.0 mi ENE 8.1 mph - N/A Rain Light Rain
11:13 AM 42.8 °F 37.0 °F 41.0 °F 93% 29.74 in 7.0 mi NE 10.4 mph - N/A Rain Light Rain
11:21 AM 42.8 °F 37.0 °F 41.0 °F 93% 29.73 in 6.0 mi ENE 10.4 mph - N/A Rain Light Rain
11:22 AM 42.8 °F 37.5 °F 41.0 °F 93% 29.73 in 6.0 mi ENE 9.2 mph - N/A Rain Light Rain
11:33 AM 42.8 °F 38.0 °F 41.0 °F 93% 29.72 in 9.0 mi ENE 8.1 mph - N/A Rain Light Rain
11:35 AM 42.8 °F 37.0 °F 41.0 °F 93% 29.72 in 10.0 mi ENE 10.4 mph - N/A   Overcast
11:36 AM 42.8 °F 37.0 °F 41.0 °F 93% 29.72 in 10.0 mi ENE 10.4 mph - N/A   Overcast
11:41 AM 42.8 °F 39.3 °F 41.0 °F 93% 29.72 in 8.0 mi Variable 5.8 mph - N/A Rain Light Rain
11:49 AM 42.8 °F 38.6 °F 41.0 °F 93% 29.72 in 4.0 mi East 6.9 mph - N/A Rain Light Rain
11:50 AM 42.8 °F 39.3 °F 41.0 °F 93% 29.72 in 4.0 mi East 5.8 mph - N/A Rain Light Rain
11:52 AM 42.8 °F 38.6 °F 41.0 °F 93% 29.72 in 4.0 mi East 6.9 mph - N/A Rain Light Rain
11:57 AM 42.8 °F 40.1 °F 41.0 °F 93% 29.73 in 5.0 mi East 4.6 mph - N/A Rain Light Rain
12:15 PM 42.8 °F 37.5 °F 41.0 °F 93% 29.72 in 4.0 mi East 9.2 mph - N/A Rain Light Rain
12:16 PM 42.8 °F 37.0 °F 41.0 °F 93% 29.72 in 4.0 mi East 10.4 mph - N/A Rain Light Rain
12:17 PM 42.8 °F 37.5 °F 41.0 °F 93% 29.71 in 4.0 mi East 9.2 mph - N/A Rain Light Rain
12:21 PM 42.8 °F 37.5 °F 41.0 °F 93% 29.71 in 5.0 mi East 9.2 mph - N/A Rain Light Rain
12:28 PM 42.8 °F 38.6 °F 41.0 °F 93% 29.70 in 9.0 mi East 6.9 mph 17.3 mph N/A Rain Light Rain
12:30 PM 42.8 °F 38.6 °F 41.0 °F 93% 29.70 in 10.0 mi East 6.9 mph 17.3 mph N/A Rain Light Rain
12:31 PM 42.8 °F 38.0 °F 41.0 °F 93% 29.70 in 10.0 mi East 8.1 mph 17.3 mph N/A   Overcast
12:39 PM 42.8 °F 38.0 °F 41.0 °F 93% 29.69 in 9.0 mi ENE 8.1 mph - N/A Rain Light Rain
12:43 PM 42.8 °F 37.0 °F 41.0 °F 93% 29.69 in 7.0 mi ENE 10.4 mph 17.3 mph N/A Rain Light Rain
12:46 PM 42.8 °F 38.6 °F 41.0 °F 93% 29.69 in 7.0 mi ENE 6.9 mph 17.3 mph N/A Rain Light Rain
12:56 PM 42.8 °F 38.0 °F 41.0 °F 93% 29.69 in 7.0 mi East 8.1 mph - N/A Rain Light Rain
1:00 PM 42.8 °F 38.0 °F 41.0 °F 93% 29.69 in 6.0 mi ENE 8.1 mph - N/A Rain Light Rain
1:01 PM 42.8 °F 37.5 °F 41.0 °F 93% 29.69 in 6.0 mi East 9.2 mph - N/A Rain Light Rain
1:08 PM 42.8 °F 38.6 °F 41.0 °F 93% 29.69 in 5.0 mi East 6.9 mph - N/A Rain Light Rain
1:09 PM 42.8 °F 38.0 °F 41.0 °F 93% 29.69 in 4.0 mi East 8.1 mph - N/A Rain Light Rain
1:10 PM 42.8 °F 37.0 °F 41.0 °F 93% 29.69 in 4.0 mi East 10.4 mph - N/A Rain Light Rain
1:13 PM 42.8 °F 38.6 °F 41.0 °F 93% 29.69 in 4.0 mi Variable 6.9 mph - N/A Rain Light Rain
1:23 PM 41.0 °F 34.7 °F 41.0 °F 100% 29.67 in 2.5 mi East 10.4 mph - N/A Rain Light Rain
1:28 PM 41.0 °F 36.4 °F 41.0 °F 100% 29.66 in 2.5 mi Variable 6.9 mph - N/A Rain Light Rain
1:37 PM 41.0 °F 34.3 °F 41.0 °F 100% 29.65 in 2.0 mi East 11.5 mph 19.6 mph N/A Rain Light Rain
1:41 PM 41.0 °F 35.2 °F 41.0 °F 100% 29.66 in 2.5 mi East 9.2 mph 19.6 mph N/A Rain Rain
1:44 PM 41.0 °F 38.0 °F 41.0 °F 100% 29.65 in 3.0 mi East 4.6 mph 19.6 mph N/A Rain Light Rain
1:47 PM 41.0 °F 35.8 °F 41.0 °F 100% 29.66 in 4.0 mi East 8.1 mph 19.6 mph N/A Rain Light Rain
1:55 PM 41.7 °F 36.1 °F 40.5 °F 95% 29.65 in 8.0 mi East 9.2 mph - 0.12 in Rain Light Rain
2:30 PM 42.8 °F 36.6 °F 39.2 °F 87% 29.64 in 10.0 mi East 11.5 mph 19.6 mph N/A   Overcast
2:55 PM 41.5 °F 35.4 °F 39.4 °F 92% 29.63 in 10.0 mi East 10.4 mph - 0.02 in   Overcast
3:55 PM 40.8 °F 35.6 °F 38.1 °F 90% 29.63 in 10.0 mi East 8.1 mph 17.3 mph N/A   Overcast
4:03 PM 41.0 °F 35.8 °F 37.4 °F 87% 29.63 in 10.0 mi East 8.1 mph - N/A   Overcast
4:16 PM 41.0 °F 37.1 °F 37.4 °F 87% 29.63 in 5.0 mi ENE 5.8 mph - N/A   Overcast
4:46 PM 39.2 °F 33.6 °F 39.2 °F 100% 29.61 in 6.0 mi East 8.1 mph - N/A   Overcast
4:50 PM 39.2 °F 32.5 °F 37.4 °F 93% 29.61 in 7.0 mi East 10.4 mph 19.6 mph N/A   Overcast
4:54 PM 39.2 °F 32.5 °F 37.4 °F 93% 29.61 in 8.0 mi East 10.4 mph 20.7 mph N/A   Overcast
4:55 PM 39.4 °F 34.5 °F 38.1 °F 95% 29.61 in 9.0 mi East 6.9 mph 20.7 mph N/A   Overcast
4:56 PM 39.2 °F 33.6 °F 37.4 °F 93% 29.61 in 9.0 mi East 8.1 mph 20.7 mph N/A   Overcast
5:07 PM 39.2 °F 33.0 °F 37.4 °F 93% 29.61 in 10.0 mi ENE 9.2 mph - N/A   Overcast
5:43 PM 39.2 °F 33.0 °F 37.4 °F 93% 29.60 in 10.0 mi East 9.2 mph 19.6 mph N/A   Overcast
5:55 PM 39.2 °F 33.0 °F 36.5 °F 90% 29.60 in 10.0 mi East 9.2 mph - N/A   Overcast
6:55 PM 38.5 °F 35.0 °F 35.4 °F 89% 29.63 in 10.0 mi Variable 4.6 mph - N/A   Overcast
7:09 PM 39.2 °F 32.5 °F 35.6 °F 87% 29.62 in 10.0 mi East 10.4 mph 17.3 mph N/A   Overcast
7:28 PM 37.4 °F 32.1 °F 35.6 °F 93% 29.62 in 10.0 mi ENE 6.9 mph - N/A   Overcast
7:55 PM 38.1 °F 31.7 °F 36.0 °F 92% 29.62 in 10.0 mi NE 9.2 mph - N/A   Overcast
8:55 PM 37.6 °F 30.0 °F 35.1 °F 91% 29.62 in 10.0 mi NE 11.5 mph - N/A   Overcast
9:21 PM 37.4 °F 29.8 °F 35.6 °F 93% 29.62 in 10.0 mi NE 11.5 mph - N/A   Overcast
9:31 PM 37.4 °F 31.4 °F 35.6 °F 93% 29.62 in 10.0 mi NE 8.1 mph - N/A Rain Light Rain
9:35 PM 37.4 °F 31.4 °F 35.6 °F 93% 29.62 in 10.0 mi NNE 8.1 mph - N/A   Light Drizzle
9:41 PM 37.4 °F 32.1 °F 35.6 °F 93% 29.62 in 10.0 mi NNE 6.9 mph - N/A   Light Drizzle
9:44 PM 37.4 °F 32.1 °F 35.6 °F 93% 29.62 in 10.0 mi North 6.9 mph - N/A   Light Drizzle
9:52 PM 37.4 °F 32.8 °F 35.6 °F 93% 29.62 in 10.0 mi North 5.8 mph - N/A   Light Drizzle
9:55 PM 36.9 °F 31.4 °F 35.4 °F 95% 29.63 in 10.0 mi NNW 6.9 mph - 0.00 in Rain Light Rain
9:58 PM 37.4 °F 32.1 °F 35.6 °F 93% 29.63 in 10.0 mi NNW 6.9 mph - N/A Rain Light Rain
10:04 PM 35.6 °F 29.9 °F 35.6 °F 100% 29.63 in 10.0 mi North 6.9 mph - N/A Rain Light Rain
10:30 PM 35.6 °F 29.9 °F 33.8 °F 93% 29.63 in 10.0 mi North 6.9 mph - N/A Rain Light Rain
10:43 PM 33.8 °F 27.7 °F 33.8 °F 100% 29.64 in 10.0 mi North 6.9 mph - N/A Rain Light Rain
10:50 PM 33.8 °F 27.0 °F 33.8 °F 100% 29.64 in 10.0 mi NNW 8.1 mph - N/A Rain Light Rain
10:55 PM 34.3 °F 27.7 °F 33.8 °F 98% 29.64 in 10.0 mi North 8.1 mph - 0.02 in Rain Light Rain
11:09 PM 33.8 °F 27.0 °F 33.8 °F 100% 29.64 in 10.0 mi North 8.1 mph - N/A Rain Light Rain
11:14 PM 33.8 °F 27.0 °F 33.8 °F 100% 29.64 in 10.0 mi NNW 8.1 mph - N/A Rain Light Rain
11:18 PM 33.8 °F 27.0 °F 33.8 °F 100% 29.64 in 10.0 mi North 8.1 mph - N/A Rain Light Rain
11:21 PM 33.8 °F 28.6 °F 33.8 °F 100% 29.63 in 10.0 mi North 5.8 mph - N/A Rain Light Rain
11:22 PM 33.8 °F 28.6 °F 33.8 °F 100% 29.63 in 10.0 mi North 5.8 mph - N/A Rain Light Rain
11:27 PM 33.8 °F 27.0 °F 33.8 °F 100% 29.63 in 10.0 mi North 8.1 mph - N/A Rain Light Rain
11:31 PM 33.8 °F 27.0 °F 33.8 °F 100% 29.63 in 10.0 mi North 8.1 mph - N/A Rain Light Rain
11:34 PM 33.8 °F 26.4 °F 33.8 °F 100% 29.63 in 10.0 mi North 9.2 mph - N/A Rain Light Rain
11:55 PM 33.3 °F 27.9 °F 32.7 °F 98% 29.62 in 10.0 mi North 5.8 mph - 0.01 in   Light Drizzle
11:58 PM 33.8 °F 28.6 °F 32.0 °F 93% 29.62 in 10.0 mi North 5.8 mph - N/A   Overcast